Location: Unspecified
(51.5147°N, 7.4673°E)
Time: 19:39:32
(UTC+01:00)

A-11 Canister half - Pass Details

Date: 24 February 2026
Orbit: 1512 x 1687 km, 47.2° (Epoch: 8 March)

Event Time Altitude Azimuth Distance (km) Brightness Sun altitude
Rises 01:44:26 0° 286° (WNW) 4,916 - -46.2°
Reaches altitude 10° 01:47:51 10° 279° (W) 3,909 - -46.0°
Maximum altitude 01:56:50 40° 215° (SW) 2,232 - -45.4°
Drops below altitude 10° 02:05:31 10° 150° (SSE) 3,774 - -44.8°
Sets 02:08:47 0° 143° (SE) 4,733 - -44.5°
